EW7989 Weather Reports


time (UTC)temp
C
wind
direction
speed
KPH
gust
KPH
rain 1hr
cm
rain 24hr
cm
rain mn
cm
humidity
%
barometer
mb
20260508024545 21 332 3.2 9.7 0.00 0.00 0.00 24 1013.2
20260508023033 22 294 6.4 12.9 0.00 0.00 0.00 22 1013.0
20260508021529 22 303 6.4 20.9 0.00 0.00 0.00 21 1013.1
20260508020026 22 298 9.7 17.7 0.00 0.00 0.00 20 1013.1
20260508014528 22 300 12.9 19.3 0.00 0.00 0.00 19 1013.0
20260508013019 23 279 11.3 19.3 0.00 0.00 0.00 19 1012.9
20260508011517 23 305 11.3 22.5 0.00 0.00 0.00 18 1012.9
20260508010020 23 316 12.9 24.1 0.00 0.00 0.00 19 1012.9
20260508004513 23 313 11.3 19.3 0.00 0.00 0.00 19 1012.9
20260508003103 23 306 12.9 22.5 0.00 0.00 0.00 18 1012.9
20260508001554 24 328 12.9 22.5 0.00 0.00 0.00 18 1012.9
20260508000052 24 301 14.5 20.9 0.00 0.00 0.00 17 1012.9
20260507234552 24 345 14.5 29.0 0.00 0.00 0.00 17 1012.8
20260507233050 24 323 11.3 22.5 0.00 0.00 0.00 17 1013.0
20260507231554 24 5 0.0 16.1 0.00 0.00 0.00 18 1013.1
20260507230051 24 336 12.9 38.6 0.00 0.00 0.00 17 1013.3
20260507224545 23 324 8.0 17.7 0.00 0.00 0.00 18 1013.5
20260507223026 24 284 4.8 14.5 0.00 0.00 0.00 17 1013.7
20260507221533 23 294 9.7 20.9 0.00 0.00 0.00 18 1013.9
20260507220016 23 294 9.7 24.1 0.00 0.00 0.00 18 1014.1
20260507214512 23 341 8.0 20.9 0.00 0.00 0.00 21 1014.1
20260507213008 23 327 11.3 17.7 0.00 0.00 0.00 20 1014.2
20260507211512 23 293 9.7 22.5 0.00 0.00 0.00 19 1014.5
20260507210006 22 302 12.9 20.9 0.00 0.00 0.00 16 1014.6
20260507204504 22 292 14.5 27.4 0.00 0.00 0.00 16 1014.8
20260507203003 22 262 12.9 20.9 0.00 0.00 0.00 15 1015.0
20260507201504 21 360 6.4 24.1 0.00 0.00 0.00 18 1015.0
20260507200105 21 251 9.7 17.7 0.00 0.00 0.00 20 1015.2
20260507194550 21 238 4.8 22.5 0.00 0.00 0.00 23 1015.4
20260507193051 20 313 12.9 24.1 0.00 0.00 0.00 25 1015.5
20260507191549 20 301 8.0 24.1 0.00 0.00 0.00 26 1015.6
20260507190056 20 319 9.7 19.3 0.00 0.00 0.00 25 1015.6
20260507184556 19 329 16.1 22.5 0.00 0.00 0.00 29 1015.8
20260507183049 19 294 11.3 32.2 0.00 0.00 0.00 25 1015.8
20260507181545 19 285 6.4 12.9 0.00 0.00 0.00 27 1015.9
20260507180034 19 344 6.4 14.5 0.00 0.00 0.00 27 1015.9
20260507174528 18 281 8.0 20.9 0.00 0.00 0.00 27 1016.0
20260507173028 18 225 6.4 17.7 0.00 0.00 0.00 26 1016.1
20260507171514 18 282 8.0 17.7 0.00 0.00 0.00 32 1016.0
20260507170015 18 303 8.0 17.7 0.00 0.00 0.00 32 1016.0
20260507164513 17 305 9.7 19.3 0.00 0.00 0.00 42 1016.0
20260507163014 16 338 12.9 17.7 0.00 0.00 0.00 50 1016.1
20260507161511 16 59 4.8 12.9 0.00 0.00 0.00 54 1016.2
20260507160011 15 333 6.4 16.1 0.00 0.00 0.00 51 1016.3
20260507154510 15 78 4.8 9.7 0.00 0.00 0.00 54 1016.5
20260507153106 14 48 1.6 6.4 0.00 0.00 0.00 58 1016.6
20260507151558 13 60 0.0 1.6 0.00 0.00 0.00 59 1016.6
20260507150057 12 61 0.0 8.0 0.00 0.00 0.00 61 1016.7
20260507144557 11 161 8.0 17.7 0.00 0.00 0.00 63 1016.7
20260507143101 10 163 8.0 16.1 0.00 0.00 0.00 66 1016.7
20260507141556 9 157 3.2 16.1 0.00 0.00 0.00 72 1016.6
20260507140054 8 132 0.0 6.4 0.00 0.00 0.00 74 1016.7
20260507134557 7 130 1.6 12.9 0.00 0.00 0.00 76 1016.6
20260507133055 6 153 8.0 12.9 0.00 0.00 0.00 77 1016.5
20260507131547 6 190 8.0 11.3 0.00 0.00 0.00 78 1016.5
20260507130045 6 165 1.6 9.7 0.00 0.00 0.00 78 1016.5
20260507124534 6 177 8.0 12.9 0.00 0.00 0.00 78 1016.4
20260507123031 7 166 6.4 8.0 0.00 0.00 0.00 75 1016.3
20260507121526 7 166 4.8 11.3 0.00 0.00 0.00 75 1016.4
20260507120027 8 165 6.4 11.3 0.00 0.00 0.00 73 1016.3
20260507114521 8 157 4.8 9.7 0.00 0.00 0.00 72 1016.3
20260507113100 8 174 6.4 11.3 0.00 0.00 0.00 71 1016.3
20260507111601 8 159 1.6 14.5 0.00 0.00 0.00 71 1016.3
20260507110042 9 146 4.8 11.3 0.00 0.00 0.00 69 1016.1
20260507104541 9 159 6.4 14.5 0.00 0.00 0.00 70 1016.1
20260507103038 9 165 8.0 16.1 0.00 0.00 0.00 69 1016.1
20260507101537 9 181 9.7 16.1 0.00 0.00 0.00 68 1016.1
20260507100035 10 184 9.7 17.7 0.00 0.00 0.00 68 1016.2
20260507094530 10 182 1.6 8.0 0.00 0.00 0.00 67 1016.2
20260507093027 10 149 6.4 16.1 0.00 0.00 0.00 66 1016.2
20260507091529 11 157 4.8 12.9 0.00 0.00 0.00 64 1016.2
20260507090008 11 157 8.0 12.9 0.00 0.00 0.00 64 1016.3
20260507084602 11 157 6.4 12.9 0.00 0.00 0.00 64 1016.2
20260507083047 11 154 3.2 6.4 0.00 0.00 0.00 64 1016.3
20260507081545 11 274 0.0 6.4 0.00 0.00 0.00 63 1016.4
20260507080045 12 274 1.6 4.8 0.00 0.00 0.00 64 1016.4
20260507074538 12 274 0.0 4.8 0.00 0.00 0.00 62 1016.4
20260507073035 12 281 1.6 3.2 0.00 0.00 0.00 62 1016.4
20260507071531 13 281 1.6 6.4 0.00 0.00 0.00 60 1016.3
20260507070031 13 286 0.0 4.8 0.00 0.00 0.00 57 1016.4
20260507064525 14 286 0.0 4.8 0.00 0.00 0.00 57 1016.6
20260507063010 15 287 0.0 4.8 0.00 0.00 0.00 55 1016.5
20260507061506 15 287 0.0 3.2 0.00 0.00 0.00 53 1016.6
20260507060003 16 287 1.6 6.4 0.00 0.00 0.00 52 1016.7
20260507054600 16 286 3.2 16.1 0.00 0.00 0.00 51 1016.7
20260507053108 16 285 4.8 12.9 0.00 0.00 0.00 48 1016.7
20260507051552 17 312 4.8 12.9 0.00 0.00 0.00 43 1016.7
20260507050049 17 310 4.8 19.3 0.00 0.00 0.00 40 1016.6
20260507044545 18 333 4.8 17.7 0.00 0.00 0.00 39 1016.5
20260507043043 18 262 9.7 22.5 0.00 0.00 0.00 38 1016.4
20260507041523 18 332 8.0 22.5 0.00 0.00 0.00 36 1016.3
20260507040019 19 312 11.3 24.1 0.00 0.00 0.00 34 1016.2
20260507034559 19 302 16.1 27.4 0.00 0.00 0.00 31 1016.0
20260507033100 20 297 9.7 22.5 0.00 0.00 0.00 30 1016.0
20260507031539 20 303 9.7 30.6 0.00 0.00 0.00 28 1015.9
20260507030036 20 286 12.9 22.5 0.00 0.00 0.00 29 1015.9